DW5608 Weather Reports


Display with metric or nautical units.
time (UTC)temp
F
wind
direction
speed
MPH
gust
MPH
rain 1hr
in
rain 24hr
in
rain mn
in
humidity
%
barometer
mb
20191117065807 47 292 2.0 5.0 0.00 0.70 0.21 95 1008.1
20191117064805 47 55 3.0 7.0 0.00 0.70 0.21 95 1008.1
20191117063804 47 341 4.0 8.0 0.00 0.70 0.21 94 1008.1
20191117062802 47 6 3.0 6.0 0.00 0.70 0.21 94 1007.8
20191117061801 47 1 2.0 4.0 0.00 0.70 0.21 95 1008.1
20191117060800 47 242 2.0 3.0 0.00 0.70 0.21 94 1008.1
20191117055759 47 358 2.0 4.0 0.00 0.70 0.21 94 1007.8
20191117054757 47 210 2.0 5.0 0.00 0.70 0.21 94 1007.8
20191117053755 47 156 1.0 2.0 0.00 0.70 0.21 94 1007.8
20191117052754 47 113 1.0 4.0 0.00 0.70 0.21 94 1007.8
20191117051753 47 155 1.0 5.0 0.02 0.70 0.21 94 1007.8
20191117050751 47 180 2.0 4.0 0.04 0.70 0.21 94 1007.8
20191117045749 47 188 2.0 4.0 0.04 0.70 0.21 94 1007.5
20191117044747 47 78 1.0 3.0 0.04 0.70 0.21 94 1007.5
20191117043745 47 252 1.0 4.0 0.04 0.70 0.21 94 1007.1
20191117042743 47 256 2.0 4.0 0.06 0.70 0.21 94 1007.8
20191117041742 47 214 1.0 5.0 0.04 0.72 0.19 94 1007.8
20191117040740 47 158 2.0 3.0 0.04 0.70 0.17 94 1007.8
20191117035739 47 110 2.0 3.0 0.04 0.70 0.17 94 1007.8
20191117034737 47 150 2.0 5.0 0.06 0.74 0.17 94 1007.8
20191117033735 47 227 3.0 5.0 0.06 0.74 0.17 94 1008.1
20191117032733 47 219 2.0 5.0 0.04 0.74 0.15 94 1008.1
20191117031732 47 269 2.0 4.0 0.06 0.76 0.15 94 1008.1
20191117030730 47 189 3.0 5.0 0.04 0.74 0.13 94 1008.5
20191117025728 47 13 4.0 8.0 0.06 0.74 0.13 94 1008.5
20191117024727 47 44 2.0 7.0 0.04 0.72 0.11 94 1008.5
20191117023725 47 61 1.0 7.0 0.08 0.72 0.11 94 1008.5
20191117022723 47 17 4.0 9.0 0.08 0.72 0.11 94 1008.5
20191117021722 47 7 1.0 5.0 0.06 0.70 0.09 94 1008.8
20191117020720 47 8 2.0 4.0 0.06 0.70 0.09 94 1008.8
20191117015719 47 357 3.0 7.0 0.04 0.68 0.08 94 1008.8
20191117014718 47 338 1.0 3.0 0.04 0.68 0.08 94 1009.1
20191117013716 47 244 3.0 5.0 0.00 0.65 0.04 93 1009.1
20191117012715 47 191 2.0 5.0 0.00 0.65 0.04 93 1009.1
20191117011713 47 224 2.0 3.0 0.00 0.65 0.04 93 1009.5
20191117010711 47 257 2.0 3.0 0.00 0.65 0.04 93 1009.5
20191117005710 47 14 1.0 5.0 0.00 0.65 0.04 93 1009.5
20191117004708 47 320 1.0 10.0 0.00 0.65 0.04 93 1009.5
20191117003707 47 10 3.0 8.0 0.00 0.65 0.04 93 1009.8
20191117002706 47 40 2.0 5.0 0.00 0.65 0.04 93 1009.8
20191117001705 47 275 1.0 4.0 0.00 0.65 0.04 93 1009.8
20191117000703 47 9 1.0 3.0 0.04 0.65 0.04 93 1009.8
20191116235702 47 225 2.0 5.0 0.04 0.67 0.04 93 1009.8
20191116234701 47 224 3.0 5.0 0.04 0.67 0.04 93 1009.8
20191116233700 47 214 3.0 5.0 0.04 0.68 0.04 93 1010.2
20191116232658 47 196 3.0 6.0 0.04 0.68 0.04 93 1010.2
20191116231657 47 211 2.0 6.0 0.04 0.70 0.04 93 1010.2
20191116230656 47 226 1.0 3.0 0.00 0.67 0.00 93 1010.2
20191116225655 47 270 1.0 5.0 0.04 0.68 0.67 93 1010.5
20191116224653 47 239 2.0 6.0 0.04 0.70 0.67 93 1010.5
20191116223652 47 119 4.0 7.0 0.04 0.72 0.67 93 1010.5
20191116222651 47 313 1.0 5.0 0.06 0.74 0.67 93 1010.5
20191116221649 48 338 1.0 4.0 0.09 0.76 0.67 93 1010.8
20191116220647 48 68 1.0 8.0 0.17 0.80 0.67 93 1010.8
20191116215645 48 158 1.0 3.0 0.17 0.84 0.63 93 1010.5
20191116214643 48 0 1.0 5.0 0.21 0.87 0.63 93 1010.5
20191116213641 48 315 1.0 3.0 0.21 0.93 0.63 93 1010.8
20191116212639 48 153 1.0 3.0 0.19 0.99 0.61 93 1011.2
20191116211638 48 225 1.0 3.0 0.15 1.06 0.57 93 1011.2
20191116210636 48 38 1.0 5.0 0.08 1.06 0.49 93 1011.5
20191116205635 48 338 1.0 3.0 0.04 1.04 0.46 93 1011.5
20191116204632 48 170 1.0 3.0 0.00 1.04 0.42 93 1011.5
20191116203631 48 155 1.0 4.0 0.02 1.04 0.42 93 1011.5
20191116202629 48 141 2.0 5.0 0.02 1.04 0.42 93 1011.5
20191116201628 48 143 1.0 4.0 0.04 1.04 0.42 93 1011.5
20191116200627 48 340 1.0 4.0 0.06 1.04 0.42 93 1011.9
20191116195626 48 17 3.0 5.0 0.06 1.08 0.42 93 1011.5
20191116194624 48 23 1.0 5.0 0.08 1.08 0.42 93 1011.9
20191116193623 48 2 2.0 3.0 0.08 1.06 0.40 93 1012.2
20191116192622 48 286 1.0 3.0 0.10 1.06 0.40 93 1012.2
20191116191621 48 210 1.0 4.0 0.10 1.05 0.38 92 1012.5
20191116190619 49 105 1.0 3.0 0.10 1.03 0.36 92 1012.5
20191116185618 49 183 2.0 4.0 0.13 1.03 0.36 92 1012.5
20191116184617 49 0 3.0 5.0 0.13 1.01 0.34 92 1012.5
20191116183616 49 5 2.0 5.0 0.13 1.03 0.32 92 1012.9
20191116182614 49 20 2.0 3.0 0.11 1.01 0.30 92 1012.5
20191116181613 49 338 1.0 2.0 0.11 0.99 0.28 92 1012.9
20191116180612 49 338 1.0 2.0 0.09 1.01 0.27 92 1012.9
20191116175611 49 338 0.0 0.0 0.06 0.99 0.23 92 1012.9
20191116174608 49 338 0.0 1.0 0.04 0.97 0.21 92 1012.9
20191116173606 49 338 0.0 0.0 0.02 0.99 0.19 92 1012.9
20191116172604 49 338 0.0 2.0 0.02 1.01 0.19 92 1012.9
20191116171603 49 338 1.0 1.0 0.00 1.01 0.17 92 1012.9
20191116170601 49 338 1.0 2.0 0.00 1.03 0.17 92 1012.9
20191116165600 49 338 0.0 1.0 0.00 1.06 0.17 91 1012.9
20191116164559 49 338 1.0 2.0 0.00 1.06 0.17 91 1012.9
20191116163557 49 338 1.0 1.0 0.00 1.08 0.17 91 1012.5
20191116162556 49 338 1.0 3.0 0.00 1.08 0.17 91 1012.5
20191116161555 49 14 1.0 2.0 0.00 1.08 0.17 90 1012.5
20191116160554 49 45 0.0 1.0 0.00 1.08 0.17 90 1012.5
20191116155550 49 45 0.0 0.0 0.00 1.08 0.17 90 1012.5
20191116154549 49 45 0.0 1.0 0.00 1.08 0.17 90 1012.5
20191116153548 50 45 0.0 0.0 0.00 1.08 0.17 90 1012.5
20191116152545 50 45 0.0 0.0 0.00 1.08 0.17 89 1012.5
20191116151543 50 45 0.0 2.0 0.00 1.08 0.17 89 1012.2
20191116150542 50 45 1.0 3.0 0.00 1.08 0.17 89 1012.2
20191116145540 50 25 1.0 3.0 0.00 1.08 0.17 89 1011.9
20191116144538 50 0 1.0 2.0 0.00 1.08 0.17 89 1011.5
20191116143536 51 0 1.0 2.0 0.00 1.08 0.17 88 1011.5
20191116142535 51 0 0.0 3.0 0.00 1.08 0.17 89 1011.9
20191116141533 51 12 2.0 3.0 0.00 1.08 0.17 89 1011.9
20191116140532 51 23 1.0 3.0 0.00 1.08 0.17 89 1012.2
20191116135531 51 0 1.0 5.0 0.00 1.08 0.17 88 1012.2
20191116134530 52 135 1.0 2.0 0.00 1.08 0.17 88 1012.2
20191116133528 52 135 1.0 2.0 0.00 1.08 0.17 87 1012.2
20191116132527 52 119 2.0 3.0 0.00 1.08 0.17 87 1012.2
20191116131526 52 23 1.0 3.0 0.00 1.10 0.17 87 1012.2
20191116130523 52 113 1.0 2.0 0.00 1.12 0.17 87 1012.2
20191116125521 53 90 1.0 2.0 0.00 1.12 0.17 87 1011.9
20191116124519 53 23 1.0 2.0 0.00 1.18 0.17 86 1011.9
20191116123518 53 0 1.0 2.0 0.00 1.23 0.17 86 1011.9
20191116122516 53 0 1.0 3.0 0.00 1.29 0.17 85 1011.9
20191116121513 54 246 3.0 4.0 0.00 1.31 0.17 85 1011.9
20191116120511 54 171 2.0 4.0 0.00 1.35 0.17 82 1011.9
20191116115508 54 270 1.0 4.0 0.00 1.39 0.17 80 1011.9
20191116114506 54 254 1.0 4.0 0.00 1.39 0.17 80 1011.9
20191116113505 54 293 2.0 7.0 0.00 1.39 0.17 79 1011.9
20191116112503 53 204 4.0 7.0 0.00 1.41 0.17 77 1011.9
20191116111501 53 196 3.0 8.0 0.00 1.42 0.17 79 1011.9
20191116110500 53 209 6.0 10.0 0.00 1.44 0.17 77 1011.9
20191116105459 53 197 5.0 7.0 0.00 1.48 0.17 79 1011.9
20191116104457 53 198 2.0 7.0 0.00 1.50 0.17 81 1011.5
20191116103456 53 210 3.0 10.0 0.00 1.50 0.17 81 1011.5
20191116102455 53 207 3.0 10.0 0.00 1.50 0.17 82 1011.5
20191116101454 52 217 4.0 10.0 0.00 1.52 0.17 82 1011.5
20191116100453 52 155 4.0 8.0 0.00 1.52 0.17 83 1011.5
20191116095452 52 248 2.0 5.0 0.00 1.54 0.17 86 1011.2
20191116094450 52 193 3.0 10.0 0.00 1.56 0.17 85 1011.2
20191116093450 51 194 3.0 10.0 0.00 1.56 0.17 85 1011.2
20191116092447 51 203 1.0 7.0 0.00 1.56 0.17 89 1011.2
20191116091446 50 225 1.0 5.0 0.00 1.58 0.17 92 1011.2
20191116090445 49 208 2.0 7.0 0.00 1.60 0.17 93 1010.8
20191116085444 48 158 2.0 4.0 0.00 1.62 0.17 94 1010.8
20191116084442 48 232 3.0 6.0 0.00 1.62 0.17 95 1010.8
20191116083441 47 217 2.0 4.0 0.00 1.63 0.17 95 1010.5
20191116082440 46 195 1.0 6.0 0.00 1.63 0.17 95 1010.5
20191116081439 46 203 0.0 2.0 0.00 1.63 0.17 94 1010.5
20191116080437 45 180 1.0 2.0 0.00 1.65 0.17 94 1010.2
20191116075436 45 201 1.0 3.0 0.00 1.65 0.17 94 1010.5
20191116074434 45 248 1.0 2.0 0.00 1.65 0.17 94 1010.5
20191116073435 45 248 1.0 2.0 0.00 1.67 0.17 94 1010.5
20191116072432 45 135 0.0 2.0 0.00 1.67 0.17 94 1010.2
20191116071430 45 135 0.0 0.0 0.00 1.67 0.17 94 1010.2